Theta_e
282 281 281 280 280 279 279 280 281 280 280 280 280 280 281 281 281 281 282 281 281 282
281 279 279 279 278 278 279 278 278 278 278 279 279 279 279 279 279 280 280 280 281 281
279 278 278 277 277 277 278 277 277 277 277 277 277 277 277 277 278 278 279 279 279 280
277 277 276 276 276 276 276 276 275 275 275 275 275 276 275 275 275 275 275 276 277 277
276 275 275 275 275 275 274 275 274 274 273 273 273 273 273 272 273 272 272 273 273 274
275 274 274 274 274 273 273 273 273 272 272 271 271 271 271 271 270 270 270 271 271 272
274 273 273 273 272 272 272 271 271 271 270 270 270 270 270 270 270 271 271 272 272 272
273 272 272 271 271 271 270 270 270 269 269 270 269 269 270 270 271 271 272 272 272 273
271 271 270 270 269 269 269 269 268 268 269 269 269 271 272 273 272 272 271 272 272 273
270 269 268 268 267 267 267 267 267 268 268 268 268 271 273 273 272 272 273 273 273 273
268 267 266 266 266 266 267 267 267 267 266 267 268 271 272 273 273 272 273 273 273 273
267 265 265 263 264 265 266 266 265 266 266 266 266 269 272 273 272 272 273 273 274 273
266 263 263 264 264 265 264 265 266 266 266 266 266 269 272 273 272 271 272 273 274 275
264 263 263 262 264 263 263 264 263 264 266 268 270 270 273 274 273 273 272 272 272 273
Wind_Speed
11 7 7 7 5 6 8 9 9 10 10 12 13 13 13 12 13 14 14 19 16 13
10 9 7 8 7 8 9 8 10 11 11 12 13 15 14 12 15 15 16 17 18 16
10 9 7 7 9 9 9 9 10 11 11 12 13 14 14 14 15 17 14 13 19 18
9 8 7 7 7 8 9 9 10 10 11 12 13 15 15 16 17 18 19 19 20 22
9 8 7 7 7 7 9 9 9 10 11 12 13 14 15 16 16 18 20 20 21 22
10 8 7 6 7 6 8 8 9 9 11 12 13 14 15 16 17 18 19 20 21 21
10 8 7 6 6 6 6 8 9 10 11 12 13 14 15 15 17 19 19 21 22 22
8 7 6 6 5 5 6 7 9 10 11 12 12 10 14 17 19 21 21 21 21 21
9 7 6 5 5 5 6 7 9 10 11 13 10 20 24 23 18 21 21 21 20 21
9 7 6 4 5 5 6 7 9 10 10 13 14 22 26 28 18 20 19 20 19 18
10 8 5 4 4 5 5 7 9 10 11 12 13 23 26 29 20 19 21 20 20 21
9 8 6 3 4 4 5 6 8 9 12 14 15 23 27 25 18 19 20 19 20 20
7 6 5 4 3 3 5 7 7 11 12 15 15 22 26 25 14 19 17 20 20 25
8 7 5 4 1 3 5 7 8 10 12 14 14 16 25 28 17 16 17 15 16 15
Wind_Direction
203 211 224 241 262 265 265 271 289 292 289 290 294 293 289 285 278 276 274 273 268 267
194 205 215 229 243 255 263 279 290 290 293 294 289 286 285 281 282 281 278 274 272 268
191 201 213 231 243 258 276 282 283 288 293 294 291 288 286 283 281 279 276 276 274 269
189 194 212 234 257 267 279 281 287 296 296 293 292 290 288 285 285 281 280 277 274 271
184 192 212 228 252 266 277 286 295 302 296 292 291 293 291 290 287 285 284 284 281 277
190 195 211 237 259 268 279 291 297 293 293 297 297 295 293 291 289 288 286 285 281 279
189 190 211 229 248 265 286 297 296 292 290 290 294 296 295 294 294 289 285 283 277 275
177 187 207 235 253 276 291 286 284 292 296 297 298 294 300 298 294 291 289 284 280 275
176 184 208 230 263 279 274 283 294 295 302 305 302 304 302 300 296 297 294 291 285 283
176 185 201 220 248 264 283 295 295 299 307 306 305 304 307 307 299 297 295 293 291 286
176 183 185 212 249 268 287 298 306 309 303 300 305 308 309 305 303 295 290 289 288 284
173 168 177 203 241 275 294 307 299 297 305 305 301 304 306 311 303 292 296 289 286 280
163 164 167 183 251 311 301 294 300 310 308 299 292 292 312 311 300 298 298 290 280 276
160 169 167 167 286 297 299 307 311 310 308 296 302 305 312 316 310 303 301 309 302 293